Weather History for Riverton, WY

Change the Weather History Date:

Saturday, March 2, 2013

  Actual Average Record
Temperature  
Mean Temperature 41 °F 30 °F  
Max Temperature 51 °F 42 °F 63 °F (1925)
Min Temperature 30 °F 18 °F -5 °F (2014)
Degree Days  
Heating Degree Days 24 35  
Month to date heating degree days 57 70  
Since 1 July heating degree days 5623 5924  
Cooling Degree Days 0 0  
Month to date cooling degree days 0 0  
Year to date cooling degree days 0 0  
Moisture  
Dew Point 26 °F    
Average Humidity 57    
Maximum Humidity 75    
Minimum Humidity 39    
Precipitation  
Precipitation 0.00 in 0.01 in 0.25 in (1951)
Month to date precipitation 0.00 0.02  
Year to date precipitation 0.65 0.53  
Snow  
Snow 0.00 in - - ()
Month to date snowfall 0.0  
Since 1 July snowfall 18.8  
Snow Depth 0.00 in    
Sea Level Pressure  
Sea Level Pressure 30.19 in    
Wind  
Wind Speed 10 mph (SW)    
Max Wind Speed 22 mph    
Max Gust Speed 25 mph    
Visibility 10 miles    
Events      
T = Trace of Precipitation, MM = Missing Value Source: NWS Daily Summary

Daily Weather History Graph

Daily Weather History Graph

Search for Another Location

Airport:

Trip Planner

Search our weather history database for the weather conditions in past years. The results will help you decide how hot, cold, wet, or windy it might be!

Date:

Astronomy

Mar. 02, 2013 Rise Set
Actual Time 6:47 AM MST 6:04 PM MST
Civil Twilight 6:19 AM MST 6:33 PM MST
Nautical Twilight 5:46 AM MST 7:06 PM MST
Astronomical Twilight 5:13 AM MST 7:39 PM MST
Moon 11:57 PM MST (3/2) 9:08 AM MST (3/2)
Length of Visible Light 12h 14m
Length of Day
11h 17m
Waning Gibbous, 73% of the Moon is Illuminated
Mar 2
Waning Gibbous
Mar 4
Last Quarter
Mar 11
New
Mar 19
First Quarter
Mar 27
Full

Hourly Weather History & Observations

Time (MST) Temp. Windchill Dew Point Humidity Pressure Visibility Wind Dir Wind Speed Gust Speed Precip Events Conditions
12:53 AM 37.0 °F 28.9 °F 23.0 °F 57% 30.32 in 10.0 mi West 12.7 mph - N/A   Clear
1:53 AM 37.0 °F 28.1 °F 23.0 °F 57% 30.32 in 10.0 mi West 15.0 mph - N/A   Clear
2:53 AM 32.0 °F 25.6 °F 21.9 °F 66% 30.32 in 10.0 mi SW 6.9 mph - N/A   Clear
3:53 AM 35.6 °F 25.5 °F 23.0 °F 60% 30.29 in 10.0 mi WNW 17.3 mph - N/A   Clear
4:53 AM 36.0 °F 25.6 °F 23.0 °F 59% 30.30 in 10.0 mi WNW 18.4 mph - N/A   Clear
5:53 AM 36.0 °F 26.3 °F 23.0 °F 59% 30.31 in 10.0 mi WNW 16.1 mph - N/A   Clear
6:53 AM 36.0 °F 28.0 °F 23.0 °F 59% 30.33 in 10.0 mi West 11.5 mph - N/A   Clear
7:53 AM 37.9 °F 28.9 °F 21.9 °F 53% 30.31 in 10.0 mi West 16.1 mph - N/A   Clear
8:53 AM 41.0 °F 33.9 °F 24.1 °F 51% 30.30 in 10.0 mi West 12.7 mph - N/A   Clear
9:53 AM 39.0 °F 34.8 °F 25.0 °F 57% 30.31 in 10.0 mi SSW 5.8 mph - N/A   Clear
10:53 AM 45.0 °F 40.6 °F 23.0 °F 42% 30.27 in 10.0 mi South 8.1 mph - N/A   Clear
11:53 AM 46.9 °F - 26.1 °F 44% 30.23 in 10.0 mi SSE 10.4 mph - N/A   Clear
12:53 PM 48.0 °F - 27.0 °F 44% 30.20 in 10.0 mi South 9.2 mph - N/A   Clear
1:53 PM 48.9 °F - 28.0 °F 44% 30.17 in 10.0 mi SSW 8.1 mph - N/A   Clear
2:53 PM 50.0 °F - 27.0 °F 41% 30.16 in 10.0 mi South 4.6 mph - N/A   Clear
3:53 PM 51.1 °F - 30.9 °F 46% 30.12 in 10.0 mi SSE 8.1 mph - N/A   Clear
4:53 PM 46.9 °F - 30.9 °F 54% 30.12 in 10.0 mi South 10.4 mph - N/A   Clear
5:53 PM 44.1 °F 40.1 °F 30.9 °F 60% 30.10 in 10.0 mi South 6.9 mph - N/A   Clear
6:53 PM 41.0 °F 39.0 °F 28.9 °F 62% 30.08 in 10.0 mi SSE 3.5 mph - N/A   Clear
7:53 PM 37.9 °F 32.1 °F 28.9 °F 70% 30.04 in 10.0 mi NE 8.1 mph - N/A   Clear
8:53 PM 36.0 °F - 28.0 °F 73% 30.01 in 10.0 mi Calm Calm - N/A   Clear
9:53 PM 35.1 °F 28.6 °F 28.0 °F 76% 30.00 in 10.0 mi West 8.1 mph - N/A   Clear
10:53 PM 34.0 °F 27.2 °F 26.1 °F 73% 29.95 in 10.0 mi NW 8.1 mph - N/A   Clear
11:53 PM 33.1 °F 26.9 °F 27.0 °F 78% 29.93 in 10.0 mi NW 6.9 mph - N/A   Clear